﻿測定場所 (Monitoring sites),日付 (Measurement date),時間 (Measurement time),線量率 最大値 (max) μGy/h,線量率 最小値 (min) μGy/h,線量率 平均値 (average) μGy/h,
調布 (Chofu),2021-01-24,23:01～24:00,0.0369,0.0326,0.0350,
調布 (Chofu),2021-01-24,22:01～23:00,0.0398,0.0331,0.0360,
調布 (Chofu),2021-01-24,21:01～22:00,0.0369,0.0323,0.0346,
調布 (Chofu),2021-01-24,20:01～21:00,0.0363,0.0316,0.0337,
調布 (Chofu),2021-01-24,19:01～20:00,0.0362,0.0299,0.0330,
調布 (Chofu),2021-01-24,18:01～19:00,0.0332,0.0275,0.0306,
調布 (Chofu),2021-01-24,17:01～18:00,0.0309,0.0276,0.0289,
調布 (Chofu),2021-01-24,16:01～17:00,0.0301,0.0269,0.0283,
調布 (Chofu),2021-01-24,15:01～16:00,0.0303,0.0266,0.0287,
調布 (Chofu),2021-01-24,14:01～15:00,0.0302,0.0270,0.0287,
調布 (Chofu),2021-01-24,13:01～14:00,0.0315,0.0270,0.0295,
調布 (Chofu),2021-01-24,12:01～13:00,0.0359,0.0298,0.0325,
調布 (Chofu),2021-01-24,11:01～12:00,0.0412,0.0343,0.0371,
調布 (Chofu),2021-01-24,10:01～11:00,0.0463,0.0361,0.0410,
調布 (Chofu),2021-01-24,09:01～10:00,0.0470,0.0415,0.0438,
調布 (Chofu),2021-01-24,08:01～09:00,0.0457,0.0355,0.0397,
調布 (Chofu),2021-01-24,07:01～08:00,0.0388,0.0334,0.0357,
調布 (Chofu),2021-01-24,06:01～07:00,0.0411,0.0332,0.0367,
調布 (Chofu),2021-01-24,05:01～06:00,0.0468,0.0391,0.0428,
調布 (Chofu),2021-01-24,04:01～05:00,0.0485,0.0400,0.0442,
調布 (Chofu),2021-01-24,03:01～04:00,0.0474,0.0394,0.0438,
調布 (Chofu),2021-01-24,02:01～03:00,0.0462,0.0406,0.0433,
調布 (Chofu),2021-01-24,01:01～02:00,0.0447,0.0362,0.0405,
調布 (Chofu),2021-01-24,00:01～01:00,0.0457,0.0378,0.0417,
調布 (Chofu),2021-01-23,23:01～24:00,0.0474,0.0405,0.0441,
調布 (Chofu),2021-01-23,22:01～23:00,0.0530,0.0431,0.0476,
調布 (Chofu),2021-01-23,21:01～22:00,0.0521,0.0435,0.0481,
調布 (Chofu),2021-01-23,20:01～21:00,0.0519,0.0446,0.0488,
調布 (Chofu),2021-01-23,19:01～20:00,0.0551,0.0470,0.0507,
調布 (Chofu),2021-01-23,18:01～19:00,0.0508,0.0420,0.0460,
調布 (Chofu),2021-01-23,17:01～18:00,0.0471,0.0409,0.0445,
調布 (Chofu),2021-01-23,16:01～17:00,0.0510,0.0439,0.0468,
調布 (Chofu),2021-01-23,15:01～16:00,0.0585,0.0451,0.0512,
調布 (Chofu),2021-01-23,14:01～15:00,0.0562,0.0485,0.0519,
調布 (Chofu),2021-01-23,13:01～14:00,0.0558,0.0454,0.0502,
調布 (Chofu),2021-01-23,12:01～13:00,0.0513,0.0415,0.0457,
調布 (Chofu),2021-01-23,11:01～12:00,0.0506,0.0413,0.0458,
調布 (Chofu),2021-01-23,10:01～11:00,0.0480,0.0394,0.0437,
調布 (Chofu),2021-01-23,09:01～10:00,0.0427,0.0312,0.0365,
調布 (Chofu),2021-01-23,08:01～09:00,0.0332,0.0282,0.0298,
調布 (Chofu),2021-01-23,07:01～08:00,0.0315,0.0267,0.0293,
調布 (Chofu),2021-01-23,06:01～07:00,0.0315,0.0278,0.0295,
調布 (Chofu),2021-01-23,05:01～06:00,0.0319,0.0280,0.0298,
調布 (Chofu),2021-01-23,04:01～05:00,0.0325,0.0282,0.0301,
調布 (Chofu),2021-01-23,03:01～04:00,0.0324,0.0283,0.0301,
調布 (Chofu),2021-01-23,02:01～03:00,0.0320,0.0281,0.0305,
調布 (Chofu),2021-01-23,01:01～02:00,0.0321,0.0283,0.0305,
調布 (Chofu),2021-01-23,00:01～01:00,0.0328,0.0283,0.0308,
調布 (Chofu),2021-01-22,23:01～24:00,0.0328,0.0284,0.0305,
調布 (Chofu),2021-01-22,22:01～23:00,0.0328,0.0292,0.0310,
調布 (Chofu),2021-01-22,21:01～22:00,0.0328,0.0286,0.0306,
調布 (Chofu),2021-01-22,20:01～21:00,0.0331,0.0287,0.0305,
調布 (Chofu),2021-01-22,19:01～20:00,0.0325,0.0277,0.0303,
調布 (Chofu),2021-01-22,18:01～19:00,0.0329,0.0277,0.0298,
調布 (Chofu),2021-01-22,17:01～18:00,0.0312,0.0268,0.0295,
調布 (Chofu),2021-01-22,16:01～17:00,0.0315,0.0280,0.0296,
調布 (Chofu),2021-01-22,15:01～16:00,0.0322,0.0280,0.0299,
調布 (Chofu),2021-01-22,14:01～15:00,0.0319,0.0278,0.0299,
調布 (Chofu),2021-01-22,13:01～14:00,0.0317,0.0276,0.0298,
調布 (Chofu),2021-01-22,12:01～13:00,0.0323,0.0287,0.0304,
調布 (Chofu),2021-01-22,11:01～12:00,0.0336,0.0289,0.0308,
調布 (Chofu),2021-01-22,10:01～11:00,0.0334,0.0291,0.0313,
調布 (Chofu),2021-01-22,09:01～10:00,0.0336,0.0297,0.0317,
調布 (Chofu),2021-01-22,08:01～09:00,0.0365,0.0306,0.0330,
調布 (Chofu),2021-01-22,07:01～08:00,0.0356,0.0306,0.0334,
調布 (Chofu),2021-01-22,06:01～07:00,0.0346,0.0307,0.0327,
調布 (Chofu),2021-01-22,05:01～06:00,0.0356,0.0307,0.0330,
調布 (Chofu),2021-01-22,04:01～05:00,0.0347,0.0308,0.0330,
調布 (Chofu),2021-01-22,03:01～04:00,0.0346,0.0306,0.0326,
調布 (Chofu),2021-01-22,02:01～03:00,0.0346,0.0304,0.0325,
調布 (Chofu),2021-01-22,01:01～02:00,0.0349,0.0303,0.0319,
調布 (Chofu),2021-01-22,00:01～01:00,0.0341,0.0296,0.0316,
調布 (Chofu),2021-01-21,23:01～24:00,0.0334,0.0295,0.0315,
調布 (Chofu),2021-01-21,22:01～23:00,0.0333,0.0295,0.0315,
調布 (Chofu),2021-01-21,21:01～22:00,0.0324,0.0287,0.0307,
調布 (Chofu),2021-01-21,20:01～21:00,0.0321,0.0283,0.0302,
調布 (Chofu),2021-01-21,19:01～20:00,0.0314,0.0274,0.0296,
調布 (Chofu),2021-01-21,18:01～19:00,0.0321,0.0281,0.0295,
調布 (Chofu),2021-01-21,17:01～18:00,0.0310,0.0272,0.0292,
調布 (Chofu),2021-01-21,16:01～17:00,0.0309,0.0275,0.0293,
調布 (Chofu),2021-01-21,15:01～16:00,0.0318,0.0276,0.0294,
調布 (Chofu),2021-01-21,14:01～15:00,0.0314,0.0273,0.0294,
調布 (Chofu),2021-01-21,13:01～14:00,0.0319,0.0272,0.0295,
調布 (Chofu),2021-01-21,12:01～13:00,0.0316,0.0278,0.0297,
調布 (Chofu),2021-01-21,11:01～12:00,0.0323,0.0278,0.0297,
調布 (Chofu),2021-01-21,10:01～11:00,0.0327,0.0282,0.0301,
調布 (Chofu),2021-01-21,09:01～10:00,0.0323,0.0288,0.0305,
調布 (Chofu),2021-01-21,08:01～09:00,0.0335,0.0294,0.0311,
調布 (Chofu),2021-01-21,07:01～08:00,0.0333,0.0288,0.0307,
調布 (Chofu),2021-01-21,06:01～07:00,0.0327,0.0286,0.0307,
調布 (Chofu),2021-01-21,05:01～06:00,0.0321,0.0290,0.0304,
調布 (Chofu),2021-01-21,04:01～05:00,0.0329,0.0277,0.0303,
調布 (Chofu),2021-01-21,03:01～04:00,0.0328,0.0277,0.0301,
調布 (Chofu),2021-01-21,02:01～03:00,0.0329,0.0274,0.0301,
調布 (Chofu),2021-01-21,01:01～02:00,0.0324,0.0284,0.0301,
調布 (Chofu),2021-01-21,00:01～01:00,0.0329,0.0285,0.0303,
調布 (Chofu),2021-01-20,23:01～24:00,0.0324,0.0285,0.0301,
調布 (Chofu),2021-01-20,22:01～23:00,0.0326,0.0281,0.0301,
調布 (Chofu),2021-01-20,21:01～22:00,0.0318,0.0267,0.0294,
調布 (Chofu),2021-01-20,20:01～21:00,0.0305,0.0272,0.0289,
調布 (Chofu),2021-01-20,19:01～20:00,0.0308,0.0265,0.0285,
調布 (Chofu),2021-01-20,18:01～19:00,0.0310,0.0266,0.0286,
調布 (Chofu),2021-01-20,17:01～18:00,0.0305,0.0267,0.0284,
調布 (Chofu),2021-01-20,16:01～17:00,0.0304,0.0268,0.0285,
調布 (Chofu),2021-01-20,15:01～16:00,0.0305,0.0271,0.0286,
調布 (Chofu),2021-01-20,14:01～15:00,0.0304,0.0262,0.0287,
調布 (Chofu),2021-01-20,13:01～14:00,0.0306,0.0271,0.0285,
調布 (Chofu),2021-01-20,12:01～13:00,0.0310,0.0268,0.0290,
調布 (Chofu),2021-01-20,11:01～12:00,0.0311,0.0266,0.0287,
調布 (Chofu),2021-01-20,10:01～11:00,0.0305,0.0268,0.0288,
調布 (Chofu),2021-01-20,09:01～10:00,0.0306,0.0267,0.0287,
調布 (Chofu),2021-01-20,08:01～09:00,0.0321,0.0275,0.0289,
調布 (Chofu),2021-01-20,07:01～08:00,0.0311,0.0269,0.0288,
調布 (Chofu),2021-01-20,06:01～07:00,0.0315,0.0271,0.0287,
調布 (Chofu),2021-01-20,05:01～06:00,0.0317,0.0268,0.0291,
調布 (Chofu),2021-01-20,04:01～05:00,0.0311,0.0275,0.0291,
調布 (Chofu),2021-01-20,03:01～04:00,0.0315,0.0270,0.0295,
調布 (Chofu),2021-01-20,02:01～03:00,0.0306,0.0270,0.0290,
調布 (Chofu),2021-01-20,01:01～02:00,0.0310,0.0272,0.0290,
調布 (Chofu),2021-01-20,00:01～01:00,0.0315,0.0276,0.0293,
調布 (Chofu),2021-01-19,23:01～24:00,0.0313,0.0271,0.0290,
調布 (Chofu),2021-01-19,22:01～23:00,0.0309,0.0266,0.0291,
調布 (Chofu),2021-01-19,21:01～22:00,0.0312,0.0275,0.0290,
調布 (Chofu),2021-01-19,20:01～21:00,0.0308,0.0274,0.0290,
調布 (Chofu),2021-01-19,19:01～20:00,0.0316,0.0270,0.0289,
調布 (Chofu),2021-01-19,18:01～19:00,0.0307,0.0270,0.0291,
調布 (Chofu),2021-01-19,17:01～18:00,0.0313,0.0273,0.0290,
調布 (Chofu),2021-01-19,16:01～17:00,0.0309,0.0276,0.0292,
調布 (Chofu),2021-01-19,15:01～16:00,0.0310,0.0273,0.0294,
調布 (Chofu),2021-01-19,14:01～15:00,0.0312,0.0280,0.0294,
調布 (Chofu),2021-01-19,13:01～14:00,0.0312,0.0270,0.0294,
調布 (Chofu),2021-01-19,12:01～13:00,0.0318,0.0276,0.0296,
調布 (Chofu),2021-01-19,11:01～12:00,0.0323,0.0277,0.0297,
調布 (Chofu),2021-01-19,10:01～11:00,0.0319,0.0285,0.0297,
調布 (Chofu),2021-01-19,09:01～10:00,0.0312,0.0272,0.0293,
調布 (Chofu),2021-01-19,08:01～09:00,0.0321,0.0276,0.0295,
調布 (Chofu),2021-01-19,07:01～08:00,0.0318,0.0275,0.0301,
調布 (Chofu),2021-01-19,06:01～07:00,0.0320,0.0288,0.0302,
調布 (Chofu),2021-01-19,05:01～06:00,0.0320,0.0275,0.0295,
調布 (Chofu),2021-01-19,04:01～05:00,0.0316,0.0282,0.0296,
調布 (Chofu),2021-01-19,03:01～04:00,0.0309,0.0273,0.0294,
調布 (Chofu),2021-01-19,02:01～03:00,0.0310,0.0277,0.0293,
調布 (Chofu),2021-01-19,01:01～02:00,0.0315,0.0272,0.0291,
調布 (Chofu),2021-01-19,00:01～01:00,0.0322,0.0274,0.0295,
調布 (Chofu),2021-01-18,23:01～24:00,0.0315,0.0268,0.0293,
調布 (Chofu),2021-01-18,22:01～23:00,0.0309,0.0275,0.0295,
調布 (Chofu),2021-01-18,21:01～22:00,0.0319,0.0282,0.0303,
調布 (Chofu),2021-01-18,20:01～21:00,0.0325,0.0282,0.0303,
調布 (Chofu),2021-01-18,19:01～20:00,0.0320,0.0279,0.0295,
調布 (Chofu),2021-01-18,18:01～19:00,0.0304,0.0278,0.0292,
調布 (Chofu),2021-01-18,17:01～18:00,0.0310,0.0271,0.0292,
調布 (Chofu),2021-01-18,16:01～17:00,0.0307,0.0274,0.0291,
調布 (Chofu),2021-01-18,15:01～16:00,0.0313,0.0268,0.0294,
調布 (Chofu),2021-01-18,14:01～15:00,0.0318,0.0273,0.0294,
調布 (Chofu),2021-01-18,13:01～14:00,0.0320,0.0281,0.0300,
調布 (Chofu),2021-01-18,12:01～13:00,0.0325,0.0278,0.0300,
調布 (Chofu),2021-01-18,11:01～12:00,0.0326,0.0272,0.0301,
調布 (Chofu),2021-01-18,10:01～11:00,0.0325,0.0285,0.0306,
調布 (Chofu),2021-01-18,09:01～10:00,0.0332,0.0290,0.0306,
調布 (Chofu),2021-01-18,08:01～09:00,0.0326,0.0282,0.0304,
調布 (Chofu),2021-01-18,07:01～08:00,0.0322,0.0282,0.0303,
調布 (Chofu),2021-01-18,06:01～07:00,0.0325,0.0283,0.0303,
調布 (Chofu),2021-01-18,05:01～06:00,0.0321,0.0283,0.0301,
調布 (Chofu),2021-01-18,04:01～05:00,0.0330,0.0282,0.0305,
調布 (Chofu),2021-01-18,03:01～04:00,0.0318,0.0282,0.0302,
調布 (Chofu),2021-01-18,02:01～03:00,0.0321,0.0283,0.0302,
調布 (Chofu),2021-01-18,01:01～02:00,0.0317,0.0279,0.0301,
調布 (Chofu),2021-01-18,00:01～01:00,0.0320,0.0283,0.0303,
